Theta_e
334 336 344 347 347 346 351 352 348 338 335 336 330 335 335 342 343 338 338 337 337 338 339 341 342 342 340 331 328 339 331 335 336 337 336 335 339 338 338 340 340 333 339 341 328 331 329 330 335
336 342 346 347 351 351 351 350 351 346 338 332 337 340 346 346 342 338 339 338 339 340 340 341 338 333 329 329 329 334 341 334 333 334 334 332 339 339 342 340 340 337 340 337 340 340 338 336 334
341 345 346 346 352 355 353 352 349 343 335 335 348 346 347 346 340 340 339 339 341 340 338 335 328 330 329 332 331 328 336 342 336 341 340 337 339 340 340 341 339 338 340 340 340 341 342 340 339
343 347 349 352 351 350 352 350 345 338 337 348 348 348 346 346 339 340 339 340 341 337 332 328 332 335 339 339 337 336 332 338 337 337 337 339 339 340 335 335 340 336 340 338 338 339 337 335 334
348 347 352 354 351 352 350 349 348 346 346 347 347 346 345 345 342 339 339 341 341 331 326 334 338 340 340 342 343 338 332 338 338 336 339 340 340 339 341 340 333 331 337 337 337 339 337 337 337
349 346 351 358 353 352 350 349 349 348 347 346 344 344 347 345 339 340 341 341 335 326 338 339 340 339 341 341 341 342 340 340 339 339 338 338 340 340 334 334 340 328 335 335 338 339 340 338 337
348 351 356 354 355 354 351 349 349 347 345 345 344 345 346 344 342 341 340 332 329 329 332 339 341 340 340 340 339 337 340 342 339 336 338 337 339 340 339 332 334 330 332 334 339 340 339 339 340
347 350 354 353 356 355 350 349 347 344 344 345 343 345 345 345 341 339 332 327 333 335 337 337 342 339 339 340 337 337 337 340 339 336 339 339 341 339 332 330 330 331 334 336 339 339 340 340 340
350 354 356 354 354 351 350 347 346 345 343 345 345 344 343 342 340 332 328 329 335 338 337 336 335 337 338 340 338 338 333 339 338 338 339 340 332 326 328 329 328 330 334 339 340 341 341 341 341
350 353 355 350 350 351 348 347 346 343 346 344 343 344 343 340 331 328 330 331 336 336 336 336 336 334 331 332 334 332 336 332 339 339 340 336 332 327 328 329 332 333 336 338 340 340 340 341 340
350 353 349 349 347 349 347 346 346 345 346 343 344 344 341 339 335 332 331 334 335 336 336 336 333 330 331 333 336 338 330 330 337 337 338 336 335 338 336 335 336 337 338 339 340 342 341 340 341
351 350 351 349 348 349 349 347 346 345 346 340 341 341 342 343 343 336 333 337 337 340 339 332 330 331 334 339 341 340 338 336 336 339 336 337 341 340 340 340 338 340 341 342 343 341 338 339 341
351 350 351 351 349 350 350 347 345 347 345 342 343 344 344 344 341 335 339 341 340 340 333 330 332 339 341 343 340 338 337 337 337 339 337 337 339 339 341 340 338 341 342 342 342 341 340 340 339
350 350 353 351 350 350 350 348 345 347 345 345 345 345 345 345 343 341 343 342 337 338 333 334 337 338 342 341 337 336 335 335 336 337 337 337 339 341 341 340 339 338 341 340 341 341 341 341 341
351 352 351 351 351 350 350 350 349 348 346 346 346 345 345 345 345 345 344 342 340 339 340 339 338 338 340 340 341 341 341 342 341 341 342 342 341 343 341 342 340 340 340 342 342 342 341 340 342
351 350 354 351 350 349 349 356 350 347 347 347 347 346 346 346 345 346 345 344 341 343 342 341 340 339 341 339 341 340 341 343 343 343 342 342 342 342 342 342 342 342 342 342 343 343 342 340 342
335 353 353 354 349 349 348 353 348 347 347 347 346 347 346 346 346 346 345 345 341 342 343 343 343 343 343 342 338 340 342 342 343 342 342 341 342 341 342 342 342 343 342 342 343 343 343 343 342
333 345 351 353 352 349 348 348 347 346 346 347 346 346 346 345 345 344 345 346 343 341 342 343 343 344 345 345 342 340 343 344 342 343 343 342 342 342 342 343 341 342 342 343 343 344 343 342 341
327 332 348 351 349 350 350 349 349 347 346 346 346 344 344 344 344 342 345 347 346 343 342 342 344 342 343 343 343 343 344 344 341 342 340 341 341 342 344 343 342 343 343 343 343 344 343 341 340
327 344 353 349 348 347 348 349 347 348 346 345 347 344 344 343 344 344 344 346 346 343 342 343 344 343 342 342 344 344 345 345 344 344 346 346 341 344 342 341 342 344 343 340 343 343 341 342 341
325 330 350 351 345 345 344 346 346 345 345 347 346 346 343 343 344 344 344 345 346 344 343 343 343 343 342 343 344 344 346 345 345 346 346 344 342 340 341 344 343 343 343 341 343 343 341 342 342
325 328 344 347 345 344 343 345 345 344 349 347 346 344 345 344 344 344 344 345 346 345 343 342 343 344 342 343 343 344 345 345 346 346 344 344 344 345 342 344 341 344 344 342 342 342 341 343 343
325 328 340 346 342 343 344 348 345 343 345 349 348 346 344 344 346 344 344 346 346 345 343 341 341 344 343 342 342 343 343 343 344 343 344 345 343 343 343 343 343 342 343 339 342 342 342 341 344
324 326 335 337 336 344 342 344 345 350 344 347 348 347 345 344 344 345 345 346 346 346 343 341 342 342 340 342 341 343 343 343 344 344 344 346 345 345 345 344 344 342 344 340 339 343 340 343 343
321 325 331 345 345 343 337 346 343 346 346 346 348 345 346 346 342 346 346 347 346 346 344 343 342 341 341 342 341 343 343 342 343 345 346 347 345 345 343 345 345 342 342 345 342 341 339 340 342
317 321 327 341 343 341 340 345 341 345 346 348 348 347 346 346 341 344 346 346 346 345 345 343 343 342 342 343 339 340 343 342 343 346 346 345 346 346 346 344 343 342 341 342 343 342 339 338 340
318 318 319 325 327 338 340 340 342 346 346 347 347 346 345 343 341 343 346 345 344 344 345 345 344 343 343 343 342 341 339 343 344 343 345 344 346 347 344 342 343 345 344 341 340 340 343 343 338
319 318 322 320 332 338 334 344 340 350 347 345 346 345 345 343 342 344 345 343 342 342 343 345 344 344 343 344 344 343 341 342 343 343 343 344 345 347 347 345 345 346 347 348 343 341 342 341 341
321 321 319 320 326 332 335 337 342 344 346 346 344 344 345 344 342 342 344 342 342 342 344 345 345 344 344 344 345 344 343 343 345 344 345 345 347 345 345 344 345 347 347 345 340 341 342 340 342
322 321 319 323 326 328 330 335 340 342 344 342 342 343 343 344 344 343 344 345 344 342 345 346 345 342 345 345 346 345 342 341 343 344 343 344 344 346 345 344 345 347 346 346 341 342 342 340 343
Wind_Speed
9 8 4 1 2 3 2 1 1 10 7 8 23 5 5 7 1 3 24 20 20 19 18 15 14 13 11 10 11 11 11 10 10 10 10 12 13 13 14 14 14 13 15 17 19 19 17 18 17
11 6 2 1 2 3 2 1 2 5 12 24 7 17 4 3 5 22 23 23 20 18 17 15 12 10 10 9 10 11 10 11 11 10 10 13 13 13 14 14 13 17 17 18 19 17 17 17 17
10 3 2 3 2 1 1 1 2 8 28 20 5 7 5 3 15 26 26 26 21 17 15 14 11 10 10 10 10 11 11 11 12 11 12 13 14 15 15 15 14 16 16 16 15 16 15 15 15
6 2 2 2 3 2 1 0 15 18 19 5 14 9 6 3 27 20 28 24 20 16 14 14 12 11 10 10 9 10 11 11 12 11 12 13 14 15 15 15 13 15 15 15 15 16 15 14 13
6 3 2 3 3 3 1 2 2 7 6 8 5 6 11 9 13 29 25 22 18 16 14 13 11 9 10 9 10 11 11 11 12 12 12 13 14 15 14 13 12 14 14 15 14 14 15 14 14
2 2 1 3 4 1 2 3 2 4 10 10 12 13 5 9 26 25 23 20 17 16 16 12 10 10 10 10 10 11 11 11 11 12 12 13 14 13 13 13 13 13 14 14 13 13 14 14 15
1 1 2 4 8 3 2 4 3 9 12 7 20 5 11 24 24 24 21 19 17 15 14 13 10 9 10 10 10 10 10 10 11 11 12 13 13 12 12 11 12 14 14 13 14 15 14 13 14
3 2 1 1 8 5 4 4 13 12 5 19 19 7 12 28 26 23 21 18 17 15 12 11 12 10 10 11 10 9 10 10 11 12 13 13 13 12 12 12 13 13 13 13 13 12 13 12 13
4 1 2 4 7 4 4 6 8 8 20 6 3 23 29 29 26 24 21 19 16 14 11 10 10 10 10 11 10 10 10 12 13 14 14 15 13 14 15 15 15 14 14 14 13 12 13 11 9
4 1 2 4 2 3 9 17 11 9 8 14 28 24 29 28 25 24 22 19 16 14 12 10 10 10 9 11 12 11 11 14 15 15 15 16 16 17 17 18 17 15 13 11 9 7 7 7 9
3 1 6 8 12 2 13 14 9 19 5 23 34 35 30 27 24 22 20 16 15 14 12 12 11 12 12 14 14 13 14 15 15 17 17 17 18 17 16 13 14 13 11 9 7 6 5 4 6
2 4 8 17 19 7 13 15 14 7 7 37 38 35 32 27 24 23 20 17 18 16 12 13 13 14 16 14 12 13 16 17 17 16 17 17 16 15 13 12 10 8 7 6 4 4 5 7 6
4 5 9 10 17 13 11 12 12 5 18 35 35 33 31 26 23 22 19 17 16 18 16 16 17 19 17 15 13 15 16 16 15 14 14 15 14 12 11 6 7 7 5 6 6 6 6 8 5
2 3 10 3 8 20 12 8 10 9 31 30 34 33 31 28 25 24 21 19 20 19 20 19 21 17 14 14 16 16 15 16 14 14 14 11 10 7 8 8 7 7 7 6 6 5 6 6 9
10 8 10 12 10 5 23 10 9 13 29 30 33 32 31 29 27 24 22 20 21 21 21 20 20 17 15 16 15 14 12 13 13 11 8 9 7 6 3 5 5 7 5 6 6 3 4 7 8
3 2 4 8 10 12 1 6 11 19 24 26 28 28 30 28 28 25 21 20 21 22 22 21 19 18 17 15 13 11 10 10 7 8 9 7 5 4 9 7 5 4 5 4 3 4 5 5 6
3 3 1 9 16 8 2 8 13 25 27 24 24 24 25 27 25 25 23 22 22 23 23 20 19 16 15 14 12 10 9 8 7 7 7 7 5 5 4 5 4 5 6 5 5 5 5 4 6
1 2 1 5 7 6 4 4 12 21 22 22 22 24 24 27 29 26 26 24 22 22 20 20 17 16 15 13 13 10 8 5 6 6 4 4 3 4 5 5 3 5 5 5 4 3 3 5 5
2 2 8 4 5 5 6 8 8 14 16 19 18 24 26 29 29 26 28 25 23 23 21 22 18 18 16 18 14 12 10 6 6 6 5 5 3 3 2 3 4 4 4 2 3 3 4 4 5
2 7 6 8 6 5 2 4 1 11 13 26 18 20 29 27 31 30 30 29 27 25 24 23 20 17 16 14 11 11 11 10 7 7 5 3 5 4 2 4 2 2 2 3 2 2 4 6 8
1 3 6 6 4 3 8 3 5 5 14 16 25 16 21 35 34 34 35 31 30 28 26 25 22 19 16 13 11 10 11 10 10 8 6 4 4 4 3 5 4 3 2 2 2 3 3 6 6
3 5 6 14 4 3 1 2 5 9 9 15 22 33 17 29 38 37 38 35 34 30 26 24 24 23 19 15 11 10 11 10 9 8 6 6 4 4 4 4 5 4 2 3 3 1 2 6 6
6 3 7 8 4 3 2 2 4 7 10 14 22 34 36 23 37 38 40 38 35 31 27 25 26 26 22 18 14 14 11 9 7 5 6 6 5 5 4 3 5 5 5 5 4 3 1 2 5
5 2 7 4 3 2 6 5 4 5 10 14 24 29 36 25 39 38 40 39 37 33 29 27 28 25 23 21 19 18 14 9 9 9 6 5 4 7 6 5 4 8 6 7 7 5 5 1 0
3 3 2 2 1 5 2 4 7 4 5 21 29 45 40 26 37 38 39 38 38 36 33 29 29 26 25 21 21 21 14 12 8 8 6 8 6 5 5 6 4 5 7 8 9 10 7 6 4
7 8 5 5 5 3 4 5 4 4 8 19 24 25 27 27 36 38 39 37 35 36 35 31 30 28 27 22 20 22 20 15 11 9 6 5 8 4 4 4 3 5 6 7 6 8 10 10 10
4 4 7 6 3 4 3 5 2 4 6 18 26 32 31 31 36 40 41 39 27 30 34 35 32 29 26 24 21 20 22 19 14 11 8 7 6 8 5 6 6 6 5 7 10 10 10 11 10
7 6 4 3 5 3 3 5 4 2 5 8 18 25 28 32 34 35 39 39 36 36 30 33 32 31 25 24 22 20 20 20 16 14 11 9 9 8 9 7 9 9 10 9 9 11 10 10 9
2 1 5 5 4 6 3 6 2 5 7 8 12 21 33 34 34 35 41 35 31 35 32 34 31 30 27 24 22 21 20 21 19 16 13 11 9 9 9 7 7 7 7 7 9 10 11 10 8
1 2 5 5 4 2 4 5 1 6 12 16 15 17 23 27 31 32 31 30 34 35 28 25 28 29 26 25 22 19 19 21 21 18 14 15 15 15 13 12 11 9 7 8 6 7 9 9 9
Wind_Direction
152 141 126 3 63 62 60 351 184 101 156 172 163 159 150 63 102 166 142 150 153 148 144 149 146 149 145 139 142 136 131 132 130 125 126 125 113 112 114 106 103 104 98 107 107 109 104 102 103
145 129 57 25 49 51 325 150 158 171 155 149 161 121 58 70 93 137 143 149 152 150 145 150 145 145 144 142 144 141 124 120 129 127 122 124 119 114 112 108 105 110 108 102 105 105 101 98 93
137 87 41 76 86 88 172 343 121 122 144 147 113 120 94 94 133 137 148 148 152 149 148 145 144 139 133 124 124 137 134 125 131 121 118 117 119 115 108 107 109 114 111 109 104 99 97 92 88
128 74 60 77 187 237 160 86 114 122 141 142 131 77 70 177 140 145 147 150 153 149 147 141 134 131 125 129 125 120 136 129 129 128 121 118 120 119 112 105 114 123 119 108 99 98 95 90 85
116 90 90 127 269 301 301 109 68 123 124 123 121 81 104 133 150 146 147 152 153 149 147 143 132 130 126 125 120 116 121 124 125 126 122 117 118 119 110 109 114 121 122 112 100 101 94 86 81
78 74 107 163 184 87 339 120 48 76 112 107 93 100 89 141 147 144 147 148 153 147 139 136 132 133 134 128 130 123 120 122 121 122 125 120 121 118 116 107 112 121 125 111 98 107 95 84 79
119 216 139 139 129 97 240 160 82 128 105 98 130 94 131 149 148 145 146 149 147 143 143 140 139 142 136 133 133 132 128 120 122 128 122 123 125 117 120 107 117 121 125 116 106 104 97 84 79
237 214 151 81 142 160 228 112 136 117 74 137 136 143 153 159 151 149 151 150 147 146 144 146 146 150 143 134 126 126 133 132 124 125 121 123 118 117 120 121 120 124 127 120 112 101 91 87 80
190 246 122 132 127 167 171 115 136 117 130 86 177 150 156 152 153 155 154 154 152 150 146 148 146 142 146 139 137 134 139 130 131 127 127 123 120 117 116 113 115 121 122 115 103 94 79 76 69
215 24 57 99 213 146 134 130 130 132 106 108 115 143 151 151 158 159 159 158 159 154 153 154 145 139 146 141 133 131 135 141 133 131 132 128 120 110 113 116 117 116 115 113 107 96 76 55 64
162 199 110 136 192 171 137 133 133 136 115 150 141 152 153 155 160 163 162 163 154 154 158 154 146 137 132 132 123 112 117 132 134 136 135 131 121 114 108 110 113 110 107 106 106 85 72 62 56
179 190 154 173 211 209 152 137 141 152 156 157 149 153 156 163 164 164 163 159 161 157 154 154 143 139 137 133 130 126 121 126 132 133 134 133 126 118 121 114 117 114 116 113 102 83 59 47 52
210 192 147 142 191 186 141 150 141 129 156 162 158 161 162 164 163 163 162 155 156 158 155 151 143 140 138 137 127 126 123 123 128 130 134 134 130 123 118 119 134 136 131 115 105 89 77 63 64
253 96 125 206 195 162 175 107 161 141 159 161 163 168 170 168 168 164 167 163 156 151 150 145 147 147 143 141 129 125 122 122 127 128 129 133 131 113 123 118 117 157 138 118 106 99 62 74 71
158 111 111 137 150 118 125 150 203 160 168 166 173 174 178 180 178 178 171 173 160 150 149 144 149 149 146 140 134 129 123 124 126 135 141 137 135 112 144 124 118 127 145 127 110 107 27 45 51
126 98 121 164 172 159 72 115 160 189 181 173 178 179 182 190 187 186 182 181 171 165 156 150 145 148 146 150 151 134 133 124 123 141 131 135 148 130 114 104 113 122 145 125 95 44 39 48 26
12 220 186 152 187 144 135 139 183 193 183 175 181 182 185 191 197 194 192 188 179 171 166 163 156 153 152 151 156 148 132 125 120 111 132 108 108 139 131 144 112 114 138 118 89 64 71 33 6
123 61 37 136 188 106 111 67 149 173 182 175 186 190 187 197 201 201 195 194 188 183 184 174 172 173 180 175 169 168 167 149 140 139 146 146 122 116 133 122 91 125 139 130 81 91 41 29 25
138 87 97 47 45 70 49 60 162 171 166 186 207 191 194 201 199 200 202 200 196 192 196 192 182 178 181 185 187 195 201 179 158 158 170 184 172 162 174 160 134 116 128 140 85 75 35 35 357
138 115 96 87 127 96 42 27 133 194 199 199 209 204 199 199 203 204 205 204 202 195 198 192 186 184 184 187 196 199 199 189 182 182 179 187 182 205 193 190 186 157 106 114 107 45 47 38 26
125 153 171 133 131 70 140 188 212 193 225 227 208 219 200 200 204 203 204 202 202 199 198 195 189 187 190 186 192 191 183 199 212 212 220 220 187 176 212 201 221 198 197 174 150 33 50 40 37
160 213 135 134 152 157 202 235 230 194 203 205 211 228 220 206 209 204 203 201 203 201 200 200 195 197 198 195 198 200 200 212 207 210 216 205 209 219 246 205 208 203 211 201 206 263 71 57 54
207 226 139 165 90 100 204 128 246 163 203 200 207 220 224 219 207 205 204 204 203 200 200 202 200 202 206 204 206 208 207 192 206 215 220 231 217 216 182 219 219 240 247 219 209 229 155 88 62
137 149 58 73 77 334 204 165 249 198 212 189 198 216 215 218 212 209 205 205 205 202 201 202 198 204 204 205 214 216 213 233 231 226 221 230 247 231 225 236 262 240 243 222 219 224 229 240 51
130 156 68 68 66 227 238 130 248 198 199 187 188 203 208 213 206 205 200 204 205 205 203 203 202 203 202 212 211 205 218 233 235 216 229 250 256 258 243 245 267 221 232 229 228 226 232 254 274
180 161 148 169 188 230 92 224 265 293 268 189 187 202 204 219 202 202 201 200 205 209 208 207 208 208 210 215 215 218 223 234 230 221 239 287 244 262 258 238 250 229 237 237 233 225 234 250 263
193 152 197 114 27 99 220 284 290 36 48 147 156 165 179 194 195 200 199 199 206 214 216 216 213 214 216 220 222 224 225 231 234 235 251 275 241 238 247 236 229 248 251 251 245 253 239 252 261
159 167 95 12 138 187 282 286 237 148 120 115 155 160 166 183 189 196 202 203 214 218 228 222 220 224 219 223 227 233 233 231 240 246 256 264 252 248 241 269 239 248 264 263 258 236 240 253 251
77 207 59 119 136 159 174 257 158 177 154 137 137 152 170 182 187 191 196 200 203 216 230 228 226 229 225 224 229 236 241 235 240 248 254 248 244 254 253 263 280 289 270 264 249 245 249 246 248
168 261 165 135 221 207 156 256 165 168 144 143 139 153 167 180 186 189 188 196 199 210 224 223 225 228 235 225 227 237 243 240 241 248 252 252 262 263 262 267 272 273 276 253 262 256 254 252 251